DW0452 Weather Reports


time (UTC)temp
C
wind
direction
speed
KPH
gust
KPH
rain 1hr
cm
rain 24hr
cm
rain mn
cm
humidity
%
barometer
mb
20260506033335 8 166 0.0 0.0 0.00 0.41 0.08 92 1008.8
20260506033049 8 167 0.0 0.0 0.00 0.08 0.08 92 1008.7
20260506032833 8 167 0.0 0.0 0.00 0.41 0.08 92 1008.7
20260506032330 8 167 0.0 0.0 0.00 0.41 0.08 92 1008.6
20260506031848 8 167 0.0 0.0 0.00 0.41 0.08 92 1008.5
20260506031505 8 167 0.0 0.0 0.00 0.08 0.08 92 1008.4
20260506031346 8 167 0.0 0.0 0.00 0.41 0.08 92 1008.6
20260506030842 8 168 0.0 0.0 0.00 0.41 0.08 92 1008.5
20260506030340 8 167 0.0 0.0 0.00 0.41 0.08 92 1008.4
20260506030033 8 167 0.0 0.0 0.00 0.10 0.08 92 1008.2
20260506025837 8 166 0.0 0.0 0.00 0.51 0.08 91 1008.5
20260506025334 8 173 0.0 0.0 0.00 0.51 0.08 91 1008.3
20260506024845 8 162 0.0 0.0 0.00 0.51 0.08 91 1008.5
20260506024558 8 170 0.0 0.0 0.00 0.10 0.08 91 1008.4
20260506024342 8 170 0.0 0.0 0.00 0.51 0.08 91 1008.5
20260506023839 8 171 0.0 0.0 0.00 0.51 0.08 91 1008.7
20260506023357 8 172 0.0 0.0 0.00 0.51 0.08 91 1008.6
20260506023101 8 172 0.0 0.0 0.00 0.10 0.08 91 1008.5
20260506022832 8 172 0.0 0.0 0.00 0.51 0.08 91 1008.7
20260506022349 8 179 0.0 0.0 0.00 0.51 0.08 90 1008.8
20260506021846 8 162 0.0 0.0 0.00 0.51 0.08 90 1008.7
20260506021525 8 159 0.0 0.0 0.00 0.10 0.08 90 1008.4
20260506021343 8 160 0.0 0.0 0.00 0.51 0.08 90 1008.6
20260506020840 8 179 0.0 0.0 0.00 0.51 0.08 89 1008.7
20260506020337 8 183 0.0 0.0 0.00 0.51 0.08 89 1008.6
20260506020051 8 182 0.0 0.0 0.00 0.10 0.08 89 1008.5
20260506015851 8 182 0.0 0.0 0.00 0.51 0.08 88 1008.7
20260506015346 8 167 0.0 0.0 0.00 0.51 0.08 88 1008.6
20260506014910 8 168 0.0 0.0 0.00 0.51 0.08 87 1008.7
20260506014543 8 166 0.0 0.0 0.00 0.10 0.08 87 1008.5
20260506014347 8 166 0.0 0.0 0.00 0.51 0.08 87 1008.8
20260506013844 8 167 0.0 0.0 0.00 0.51 0.08 87 1008.6
20260506013341 9 167 0.0 0.0 0.00 0.51 0.08 86 1008.6
20260506013002 8 169 0.0 0.0 0.00 0.10 0.08 85 1008.2
20260506012838 9 158 0.0 0.0 0.00 0.51 0.08 85 1008.4
20260506012333 9 158 0.0 0.0 0.00 0.51 0.08 85 1008.5
20260506011831 9 158 0.0 0.0 0.00 0.51 0.08 85 1008.2
20260506011544 8 158 0.0 0.0 0.00 0.10 0.08 84 1007.9
20260506011343 9 158 0.0 0.0 0.00 0.51 0.08 84 1008.2
20260506010841 9 158 0.0 0.0 0.00 0.51 0.08 84 1008.1
20260506010338 9 160 0.0 0.0 0.00 0.51 0.08 84 1008.1
20260506010006 8 156 0.0 0.0 0.00 0.10 0.08 84 1007.8
20260506005835 9 156 0.0 0.0 0.00 0.51 0.08 84 1008.0
20260506005331 9 179 0.0 0.0 0.00 0.51 0.08 84 1008.3
20260506004847 9 167 0.0 0.0 0.00 0.51 0.08 84 1008.2
20260506004536 8 167 0.0 0.0 0.00 0.10 0.08 83 1007.9
20260506004345 9 167 0.0 0.0 0.00 0.51 0.08 83 1008.2
20260506003840 9 310 0.0 0.0 0.00 0.51 0.08 82 1008.0
20260506003335 9 309 0.0 0.0 0.00 0.51 0.08 82 1008.0
20260506003121 8 309 0.0 0.0 0.00 0.10 0.08 82 1007.7
20260506002831 9 310 0.0 0.0 0.00 0.51 0.08 82 1008.0
20260506002348 9 310 0.0 0.0 0.00 0.51 0.08 82 1007.9
20260506001841 9 310 0.0 0.0 0.00 0.51 0.08 82 1007.7
20260506001530 8 310 0.0 0.0 0.00 0.10 0.08 82 1007.3
20260506001338 9 310 0.0 0.0 0.00 0.51 0.08 82 1007.6
20260506000903 9 309 0.0 0.0 0.00 0.51 0.08 82 1007.7
20260506000401 9 310 0.0 0.0 0.00 0.51 0.08 82 1007.6
20260506000104 9 310 0.0 0.0 0.00 0.10 0.08 82 1007.3
20260505235903 9 310 0.0 0.0 0.00 0.51 0.08 81 1007.6
20260505235340 9 310 0.0 0.0 0.00 0.51 0.08 81 1007.6
20260505234837 9 310 0.0 0.0 0.00 0.51 0.08 81 1007.7
20260505234506 9 310 0.0 0.0 0.00 0.10 0.08 81 1007.3
20260505234333 9 310 0.0 0.0 0.00 0.51 0.08 82 1007.6
20260505233831 9 309 0.0 0.0 0.00 0.51 0.08 82 1007.8
20260505233342 9 309 0.0 0.0 0.00 0.51 0.08 82 1007.9
20260505233046 9 309 0.0 0.0 0.00 0.10 0.08 82 1007.5
20260505232839 9 309 0.0 0.0 0.00 0.51 0.08 81 1007.9
20260505232336 9 308 0.0 0.0 0.00 0.51 0.08 81 1007.9
20260505231834 9 306 0.0 0.0 0.00 0.51 0.08 81 1007.8
20260505231600 9 295 0.0 0.0 0.00 0.10 0.08 82 1007.5
20260505231330 9 325 0.0 0.0 0.00 0.51 0.08 82 1007.8
20260505230847 9 324 0.0 0.0 0.00 0.51 0.08 82 1007.7
20260505230345 9 321 0.0 0.0 0.00 0.51 0.08 81 1007.7
20260505230038 9 332 0.0 0.0 0.00 0.10 0.08 82 1007.4
20260505225841 9 332 0.0 0.0 0.00 0.51 0.08 81 1007.7
20260505225356 9 309 0.0 0.0 0.00 0.51 0.08 82 1007.7
20260505224832 9 295 0.0 0.0 0.00 0.51 0.08 82 1007.6
20260505224535 9 295 0.0 0.0 0.00 0.10 0.08 81 1007.4
20260505224344 9 295 0.0 0.0 0.00 0.51 0.08 81 1007.7
20260505223841 9 343 0.0 0.0 0.00 0.51 0.08 82 1007.8
20260505223338 9 335 0.0 0.0 0.00 0.51 0.08 82 1007.6
20260505223054 9 342 0.0 0.0 0.00 0.10 0.08 82 1007.3
20260505222906 9 4 0.0 0.0 0.00 0.51 0.08 82 1007.7
20260505222342 9 335 0.0 0.0 0.00 0.51 0.08 83 1007.8
20260505221840 9 334 0.0 0.0 0.00 0.51 0.08 83 1008.0
20260505221600 9 314 0.0 0.0 0.00 0.10 0.08 83 1007.6
20260505221337 9 305 0.0 0.0 0.00 0.51 0.08 83 1007.8
20260505220854 9 314 0.0 0.0 0.00 0.51 0.08 83 1007.8
20260505220350 9 332 0.0 0.0 0.00 0.51 0.08 84 1007.7
20260505220042 9 337 0.0 0.0 0.00 0.10 0.08 85 1007.2
20260505215842 9 340 0.0 0.0 0.00 0.51 0.08 84 1007.7
20260505215357 9 318 0.0 0.0 0.00 0.51 0.08 85 1007.7
20260505214833 9 317 0.0 0.0 0.00 0.51 0.08 85 1007.9
20260505214544 9 316 0.0 0.0 0.00 0.10 0.08 85 1007.4
20260505214329 9 318 0.0 0.0 0.00 0.51 0.08 85 1008.0
20260505213846 9 274 0.0 0.0 0.00 0.51 0.08 85 1007.8
20260505213345 9 273 0.0 0.0 0.00 0.51 0.08 85 1007.7
20260505213003 9 273 0.0 0.0 0.00 0.10 0.08 85 1007.2
20260505212843 9 297 0.0 0.0 0.00 0.51 0.08 85 1007.7
20260505212340 9 311 0.0 0.0 0.00 0.51 0.08 85 1007.6
20260505211857 9 295 0.0 0.0 0.00 0.51 0.08 85 1007.7
20260505211504 9 294 0.0 0.0 0.00 0.10 0.08 84 1007.2
20260505211332 9 290 0.0 0.0 0.00 0.51 0.08 85 1007.7
20260505210845 9 295 0.0 0.0 0.00 0.51 0.08 85 1007.7
20260505210341 9 293 0.0 0.0 0.00 0.51 0.08 85 1007.9
20260505210044 9 314 0.0 0.0 0.00 0.10 0.08 85 1007.3
20260505205838 9 292 0.0 0.0 0.00 0.51 0.08 85 1007.8
20260505205338 9 354 0.0 0.0 0.00 0.51 0.08 86 1007.8
20260505204903 9 303 0.0 0.0 0.00 0.51 0.08 86 1007.9
20260505204550 9 303 0.0 0.0 0.00 0.10 0.08 85 1007.5
20260505204338 9 294 0.0 0.0 0.10 0.51 0.08 86 1008.0
20260505203836 9 276 0.0 0.0 0.10 0.51 0.08 86 1007.8
20260505203332 9 329 0.0 0.0 0.10 0.51 0.08 86 1007.9
20260505203022 9 359 0.0 0.0 0.03 0.10 0.08 87 1007.2
20260505202847 9 354 0.0 0.0 0.10 0.51 0.08 87 1007.8
20260505202344 9 299 0.0 0.0 0.10 0.51 0.08 87 1007.7
20260505201837 9 293 0.0 0.0 0.20 0.51 0.08 88 1007.7
20260505201552 8 348 0.0 0.0 0.05 0.10 0.08 88 1007.0
20260505201335 9 289 0.0 0.0 0.30 0.51 0.08 88 1007.6
20260505200834 9 304 0.0 0.0 0.30 0.51 0.08 89 1007.9
20260505200332 9 303 0.0 0.0 0.30 0.51 0.08 89 1007.7
20260505200006 8 303 0.0 0.0 0.05 0.10 0.08 88 1007.0
20260505195848 9 323 0.0 0.0 0.30 0.51 0.08 88 1007.6
20260505195345 9 304 0.0 0.0 0.41 0.51 0.08 87 1007.6
20260505194842 9 298 0.0 0.0 0.41 0.51 0.08 87 1007.5
20260505194524 9 294 0.0 0.0 0.08 0.10 0.08 87 1006.8
20260505194401 9 296 0.0 0.0 0.30 0.41 0.05 87 1007.5
20260505193856 9 306 0.0 0.0 0.30 0.41 0.05 87 1007.5
20260505193330 10 285 0.0 0.0 0.30 0.41 0.05 86 1007.5
20260505193004 9 295 0.0 0.0 0.05 0.08 0.05 85 1006.9
20260505192844 10 311 0.0 0.0 0.30 0.41 0.05 85 1007.4
20260505192339 10 277 0.0 0.0 0.30 0.41 0.05 84 1007.3
20260505191902 10 295 0.0 0.0 0.20 0.30 0.05 82 1007.3
20260505191506 10 313 0.0 0.0 0.05 0.05 0.05 82 1006.7
20260505191339 10 338 0.0 0.0 0.10 0.20 0.03 81 1007.3
20260505190837 11 291 0.0 0.0 0.10 0.20 0.03 80 1007.3
20260505190354 11 340 0.0 0.0 0.10 0.20 0.03 79 1007.1
20260505190003 11 312 0.0 0.0 0.03 0.05 0.03 78 1006.4
20260505185846 11 294 0.0 0.0 0.10 0.20 0.03 78 1007.2
20260505185344 11 266 0.0 0.0 0.00 0.10 0.00 76 1007.2
20260505184842 12 297 0.0 0.0 0.00 0.10 0.00 74 1007.2
20260505184542 11 292 0.0 0.0 0.00 0.03 0.00 74 1006.6
20260505184332 12 287 0.0 0.0 0.00 0.10 0.00 74 1007.2
20260505183850 12 310 0.0 0.0 0.00 0.10 0.00 71 1007.1
20260505183347 12 305 0.0 0.0 0.00 0.10 0.00 70 1007.0
20260505183104 12 278 0.0 0.0 0.00 0.03 0.00 70 1006.3
20260505182844 12 305 0.0 0.0 0.00 0.10 0.00 68 1007.0
20260505182410 12 303 0.0 0.0 0.00 0.10 0.00 67 1006.8
20260505181848 13 293 0.0 0.0 0.00 0.10 0.00 69 1006.7
20260505181544 12 266 0.0 0.0 0.00 0.03 0.00 67 1006.1
20260505181345 13 310 0.0 0.0 0.00 0.10 0.00 65 1006.6
20260505180843 13 296 0.0 0.0 0.00 0.10 0.00 64 1006.7
20260505180342 13 260 0.0 0.0 0.00 0.10 0.00 63 1006.7
20260505180059 13 293 0.0 0.0 0.00 0.03 0.00 64 1006.0
20260505175838 13 280 0.0 0.0 0.00 0.10 0.00 65 1006.6
20260505175400 13 335 0.0 0.0 0.00 0.10 0.00 62 1006.5
20260505174835 14 279 0.0 0.0 0.00 0.10 0.00 63 1006.5
20260505174555 13 274 0.0 0.0 0.00 0.03 0.00 61 1005.9
20260505174333 14 272 0.0 0.0 0.00 0.10 0.00 64 1006.5
20260505173850 14 308 0.0 0.0 0.00 0.10 0.00 63 1006.2
20260505173343 14 275 0.0 0.0 0.00 0.10 0.00 62 1006.1
20260505173059 14 298 0.0 0.0 0.00 0.03 0.00 64 1005.4
20260505172840 15 308 0.0 0.0 0.00 0.10 0.00 64 1005.9
20260505172339 15 335 0.0 0.0 0.00 0.10 0.00 65 1006.0
20260505171903 14 306 0.0 0.0 0.00 0.10 0.00 66 1005.9
20260505171606 14 252 0.0 0.0 0.00 0.03 0.00 66 1005.2
20260505171355 14 274 0.0 0.0 0.00 0.10 0.00 67 1005.9
20260505170831 15 268 0.0 0.0 0.00 0.10 0.00 68 1005.9
20260505170348 14 309 0.0 0.0 0.00 0.10 0.00 68 1005.8
20260505170004 14 282 0.0 0.0 0.00 0.03 0.00 66 1005.0
20260505165844 14 324 0.0 0.0 0.00 0.10 0.00 66 1005.8
20260505165342 14 296 0.0 0.0 0.00 0.10 0.00 68 1005.7
20260505164841 14 305 0.0 0.0 0.00 0.10 0.00 69 1005.6
20260505164539 14 322 0.0 0.0 0.00 0.03 0.00 69 1005.0
20260505164407 14 270 0.0 0.0 0.00 0.10 0.00 69 1005.7
20260505163845 14 292 0.0 0.0 0.00 0.10 0.00 68 1005.7
20260505163340 14 305 0.0 0.0 0.00 0.10 0.00 68 1005.8
20260505163050 14 318 0.0 0.0 0.00 0.03 0.00 69 1005.1
20260505162858 14 336 0.0 0.0 0.00 0.10 0.00 69 1005.8
20260505162330 15 309 0.0 0.0 0.00 0.10 0.00 69 1005.8
20260505161845 14 315 0.0 0.0 0.00 0.10 0.00 70 1005.7
20260505161612 14 267 0.0 0.0 0.00 0.03 0.00 69 1004.9
20260505161342 14 314 0.0 0.0 0.00 0.10 0.00 70 1005.6
20260505160909 14 285 0.0 0.0 0.00 0.10 0.00 69 1005.5
20260505160343 15 295 0.0 0.0 0.00 0.10 0.00 70 1005.5
20260505153348 14 287 0.0 0.0 0.00 0.10 0.00 73 1005.7
20260505153033 14 277 0.0 0.0 0.00 0.03 0.00 74 1004.9
20260505152843 14 263 0.0 0.0 0.00 0.10 0.00 73 1005.6
20260505152339 15 316 0.0 0.0 0.00 0.10 0.00 74 1005.3
20260505151836 15 315 0.0 0.0 0.00 0.10 0.00 74 1005.1
20260505151606 14 252 0.0 0.0 0.00 0.03 0.00 75 1004.3
20260505151402 15 297 0.0 0.0 0.00 0.10 0.00 73 1004.7
20260505150837 15 325 0.0 0.0 0.00 0.10 0.00 74 1004.5
20260505150335 15 244 0.0 0.0 0.00 0.10 0.00 75 1004.3
20260505140338 13 305 0.0 0.0 0.00 0.10 0.00 80 1003.2
20260505124842 15 283 0.0 0.0 0.00 0.10 0.00 84 1002.8
20260505124550 14 285 0.0 0.0 0.00 0.03 0.00 84 1001.9
20260505124357 14 275 0.0 0.0 0.00 0.10 0.00 85 1002.7
20260505123833 14 309 0.0 0.0 0.00 0.10 0.00 85 1002.6
20260505123329 14 292 0.0 0.0 0.00 0.10 0.00 85 1002.6
20260505123051 14 257 0.0 0.0 0.00 0.03 0.00 85 1001.8
20260505122845 14 305 0.0 0.0 0.00 0.10 0.00 85 1002.4
20260505122400 14 270 0.0 0.0 0.00 0.10 0.00 85 1002.0
20260505121902 14 265 0.0 0.0 0.00 0.10 0.00 85 1002.0
20260505121541 13 256 0.0 0.0 0.00 0.03 0.00 85 1001.2
20260505121338 14 252 0.0 0.0 0.00 0.10 0.00 85 1001.9
20260505120836 14 258 0.0 0.0 0.00 0.10 0.00 84 1001.8
20260505120335 14 242 0.0 0.0 0.00 0.10 0.00 84 1001.8
20260505120128 13 248 0.0 0.0 0.00 0.03 0.00 85 1000.9
20260505115851 14 228 0.0 0.0 0.00 0.10 0.00 85 1001.6
20260505115328 13 289 0.0 0.0 0.00 0.10 0.00 85 1001.5
20260505114844 13 261 0.0 0.0 0.00 0.10 0.00 85 1001.5
20260505114605 13 257 0.0 0.0 0.00 0.03 0.00 85 1000.7
20260505114341 13 258 0.0 0.0 0.00 0.10 0.00 85 1001.3
20260505113838 13 254 0.0 0.0 0.00 0.10 0.00 85 1001.4
20260505113337 13 262 0.0 0.0 0.00 0.10 0.00 85 1001.4
20260505113043 13 260 0.0 0.0 0.00 0.03 0.00 85 1000.5
20260505112835 13 263 0.0 0.0 0.00 0.10 0.00 85 1001.2
20260505112349 13 249 0.0 0.0 0.00 0.10 0.00 85 1001.3
20260505111847 13 320 0.0 0.0 0.00 0.10 0.00 85 1001.1
20260505111545 13 245 0.0 0.0 0.00 0.03 0.00 85 1000.4
20260505111344 13 240 0.0 0.0 0.00 0.10 0.00 85 1001.2
20260505110841 13 261 0.0 0.0 0.00 0.10 0.00 85 1001.1
20260505110340 13 263 0.0 0.0 0.00 0.10 0.00 85 1001.1
20260505101842 13 259 0.0 0.0 0.00 0.10 0.00 84 1000.6
20260505101525 13 261 0.0 0.0 0.00 0.03 0.00 84 999.9
20260505101337 13 264 0.0 0.0 0.00 0.10 0.00 84 1000.5
20260505100903 13 250 0.0 0.0 0.00 0.10 0.00 84 1000.5
20260505100339 13 245 0.0 0.0 0.00 0.10 0.00 84 1000.4
20260505100032 13 208 0.0 0.0 0.00 0.03 0.00 84 999.8
20260505095838 13 252 0.0 0.0 0.00 0.10 0.00 84 1000.6
20260505095336 13 249 0.0 0.0 0.00 0.10 0.00 84 1000.6
20260505094833 13 239 0.0 0.0 0.00 0.10 0.00 84 1000.5
20260505094558 13 239 0.0 0.0 0.00 0.03 0.00 84 999.8
20260505094332 13 264 0.0 0.0 0.00 0.10 0.00 84 1000.5
20260505093843 13 251 0.0 0.0 0.00 0.10 0.00 84 1000.3
20260505093341 14 255 0.0 0.0 0.00 0.10 0.00 84 1000.3
20260505093023 13 251 0.0 0.0 0.00 0.03 0.00 84 999.6
20260505092837 14 243 0.0 0.0 0.00 0.10 0.00 84 1000.3
20260505092333 13 269 0.0 0.0 0.00 0.10 0.00 84 1000.2
20260505091851 13 227 0.0 0.0 0.00 0.10 0.00 84 1000.1
20260505091520 13 251 0.0 0.0 0.00 0.03 0.00 84 999.4
20260505091327 13 266 0.0 0.0 0.00 0.10 0.00 84 1000.1
20260505090844 13 264 0.0 0.0 0.00 0.10 0.00 84 1000.0
20260505090400 13 247 0.0 0.0 0.00 0.10 0.00 84 999.8
20260505090038 13 246 0.0 0.0 0.00 0.03 0.00 84 999.2
20260505085836 13 236 0.0 0.0 0.00 0.10 0.00 83 999.7
20260505085328 14 238 0.0 0.0 0.00 0.10 0.00 83 999.9
20260505084846 14 251 0.0 0.0 0.00 0.10 0.00 83 999.8
20260505084550 13 249 0.0 0.0 0.00 0.03 0.00 83 999.2
20260505084343 13 247 0.0 0.0 0.00 0.10 0.00 83 999.9
20260505083840 13 249 0.0 0.0 0.00 0.10 0.00 83 999.9
20260505083338 13 264 0.0 0.0 0.00 0.10 0.00 84 999.7
20260505083023 13 250 0.0 0.0 0.00 0.03 0.00 84 999.1
20260505082836 13 226 0.0 0.0 0.00 0.10 0.00 84 999.7
20260505082403 13 237 0.0 0.0 0.00 0.10 0.00 83 999.8
20260505081839 13 254 0.0 0.0 0.00 0.10 0.00 83 999.6
20260505081536 13 252 0.0 0.0 0.00 0.03 0.00 83 999.0
20260505081338 14 251 0.0 0.0 0.00 0.10 0.00 83 999.6
20260505080836 14 243 0.0 0.0 0.00 0.10 0.00 83 999.5
20260505080334 14 239 0.0 0.0 0.00 0.10 0.00 83 999.5
20260505080058 13 256 0.0 0.0 0.00 0.03 0.00 83 998.9
20260505075847 14 242 0.0 0.0 0.00 0.10 0.00 83 999.6
20260505075343 14 250 0.0 0.0 0.00 0.10 0.00 83 999.5
20260505074840 14 251 0.0 0.0 0.00 0.10 0.00 83 999.4
20260505074532 13 257 0.0 0.0 0.00 0.03 0.00 83 998.9
20260505074339 14 236 0.0 0.0 0.00 0.10 0.00 83 999.7
20260505073835 14 253 0.0 0.0 0.00 0.10 0.00 83 999.8
20260505073333 14 249 0.0 0.0 0.00 0.10 0.00 83 999.9
20260505073105 13 249 0.0 0.0 0.00 0.03 0.00 83 999.3
20260505072900 14 247 0.0 0.0 0.00 0.10 0.00 83 999.9
20260505072335 14 241 0.0 0.0 0.00 0.10 0.00 83 999.9
20260505071832 14 246 0.0 0.0 0.00 0.10 0.00 83 999.9
20260505071604 13 251 0.0 0.0 0.00 0.03 0.00 83 999.3
20260505071329 14 241 0.0 0.0 0.00 0.10 0.00 83 1000.0
20260505070908 14 241 0.0 0.0 0.00 0.10 0.00 83 1000.1
20260505070344 14 239 0.0 0.0 0.00 0.10 0.00 83 1000.2
20260505070010 13 237 0.0 0.0 0.00 0.03 0.00 83 999.6
20260505065842 14 237 0.0 0.0 0.00 0.10 0.00 83 1000.3
20260505065408 14 235 0.0 0.0 0.00 0.10 0.00 83 1000.3
20260505064844 14 230 0.0 0.0 0.00 0.10 0.00 83 1000.4
20260505064538 13 229 0.0 0.0 0.00 0.03 0.00 83 999.9
20260505064343 14 258 0.0 0.0 0.00 0.10 0.00 83 1000.4
20260505063840 14 243 0.0 0.0 0.00 0.10 0.00 82 1000.5
20260505063338 14 241 0.0 0.0 0.00 0.10 0.00 82 1000.5
20260505063054 14 240 0.0 0.0 0.00 0.03 0.00 82 999.9
20260505062835 14 249 0.0 0.0 0.00 0.10 0.00 82 1000.6
20260505062334 15 241 0.0 0.0 0.00 0.10 0.00 82 1000.6
20260505061830 15 256 0.0 0.0 0.00 0.10 0.00 82 1000.7
20260505061526 14 238 0.0 0.0 0.00 0.03 0.00 81 999.9
20260505061344 15 249 0.0 0.0 0.00 0.10 0.00 81 1000.5
20260505060910 15 239 0.0 0.0 0.00 0.10 0.00 81 1000.6
20260505060345 15 226 0.0 0.0 0.00 0.10 0.00 81 1000.6
20260505060035 14 228 0.0 0.0 0.00 0.03 0.00 82 1000.0
20260505055907 15 222 0.0 0.0 0.00 0.10 0.00 82 1000.8
20260505055345 15 231 0.0 0.0 0.00 0.10 0.00 82 1000.8
20260505054842 15 228 0.0 0.0 0.00 0.10 0.00 82 1001.0
20260505054600 14 226 0.0 0.0 0.00 0.03 0.00 82 1000.5
20260505054339 15 226 0.0 0.0 0.00 0.10 0.00 82 1001.0
20260505053836 15 226 0.0 0.0 0.00 0.10 0.00 82 1001.0
20260505053334 15 226 0.0 0.0 0.00 0.10 0.00 82 1001.1
20260505053006 14 216 0.0 0.0 0.00 0.03 0.00 82 1000.6
20260505052831 15 242 0.0 0.0 0.00 0.10 0.00 82 1001.2
20260505052345 14 214 0.0 0.0 0.00 0.10 0.00 82 1001.2
20260505051842 14 238 0.0 0.0 0.00 0.10 0.00 83 1001.3
20260505051528 14 235 0.0 0.0 0.00 0.03 0.00 83 1000.8
20260505051357 14 228 0.0 0.0 0.00 0.10 0.00 83 1001.1
20260505050853 14 245 0.0 0.0 0.00 0.10 0.00 82 1001.3
20260505050329 15 239 0.0 0.0 0.00 0.10 0.00 82 1001.3
20260505041559 13 241 0.0 0.0 0.00 0.03 0.00 83 1000.6
20260505041410 14 243 0.0 0.0 0.00 0.10 0.00 83 1001.1
20260505040845 14 233 0.0 0.0 0.00 0.10 0.00 83 1001.1
20260505040410 14 231 0.0 0.0 0.00 0.10 0.00 83 1001.1
20260505040045 13 234 0.0 0.0 0.00 0.03 0.00 83 1000.6
20260505035836 14 217 0.0 0.0 0.00 0.10 0.03 83 1001.1
20260505035332 14 231 0.0 0.0 0.10 0.10 0.03 83 1001.1
20260505034848 14 243 0.0 0.0 0.10 0.10 0.03 83 1001.4
20260505034552 13 217 0.0 0.0 0.03 0.03 0.03 83 1001.0
20260505034345 14 251 0.0 0.0 0.10 0.10 0.03 84 1001.5
20260505033842 14 253 0.0 0.0 0.10 0.10 0.03 85 1001.8